• în Republica Moldova
  • Lista ţărilor
  • Pe 7 zile
  • Temperatura apei
  • Hartă satelitară
  • Meteo pe hartă
  • Widget-uri
  • user-avatar
    Intrare

    Meteo pe oră la Wien

    Astăzi, 20 Septembrie, Joi

    Timp Temperatura Precipitaţii Vânt Presiune Umiditate
    00:00 +19°C° 0 mm 1 m/s 747 mmHg 74%
    01:00 +19°C° 0 mm 1 m/s 747 mmHg 75%
    02:00 +19°C° 0 mm 1 m/s 747 mmHg 77%
    03:00 +18°C° 0 mm 1 m/s 747 mmHg 78%
    04:00 +18°C° 0 mm 1 m/s 747 mmHg 79%
    05:00 +19°C° 0 mm 1 m/s 747 mmHg 77%
    06:00 +19°C° 0 mm 1 m/s 747 mmHg 76%
    07:00 +20°C° 0 mm 1 m/s 748 mmHg 74%
    08:00 +22°C° 0 mm 1 m/s 748 mmHg 67%
    09:00 +24°C° 0 mm 1 m/s 748 mmHg 61%
    10:00 +26°C° 0 mm 1 m/s 748 mmHg 54%
    11:00 +27°C° 0 mm 1 m/s 747 mmHg 51%
    12:00 +26°C° 0 mm 0 m/s 747 mmHg 48%
    13:00 +27°C° 0 mm 0 m/s 747 mmHg 45%
    14:00 +29°C° 0 mm 1 m/s 746 mmHg 45%
    15:00 +29°C° 0 mm 1 m/s 746 mmHg 45%
    16:00 +28°C° 0 mm 1 m/s 746 mmHg 45%
    17:00 +26°C° 0 mm 1 m/s 746 mmHg 50%
    18:00 +25°C° 0 mm 1 m/s 746 mmHg 55%
    19:00 +23°C° 0 mm 1 m/s 746 mmHg 61%
    20:00 +22°C° 0 mm 1 m/s 746 mmHg 62%
    21:00 +22°C° 0 mm 1 m/s 746 mmHg 64%
    22:00 +21°C° 0 mm 1 m/s 746 mmHg 65%
    23:00 +21°C° 0 mm 1 m/s 745 mmHg 66%

    Mâine, 21 Septembrie, Vineri

    Timp Temperatura Precipitaţii Vânt Presiune Umiditate
    00:00 +20°C° 0 mm 1 m/s 745 mmHg 68%
    01:00 +20°C° 0 mm 1 m/s 745 mmHg 69%
    02:00 +19°C° 0 mm 1 m/s 745 mmHg 70%
    03:00 +19°C° 0 mm 1 m/s 744 mmHg 71%
    04:00 +17°C° 0 mm 2 m/s 744 mmHg 72%
    05:00 +18°C° 0 mm 2 m/s 744 mmHg 71%
    06:00 +18°C° 0 mm 2 m/s 744 mmHg 71%
    07:00 +18°C° 0 mm 2 m/s 744 mmHg 70%
    08:00 +21°C° 0 mm 3 m/s 744 mmHg 63%
    09:00 +24°C° 0 mm 3 m/s 744 mmHg 55%
    10:00 +27°C° 0 mm 4 m/s 744 mmHg 48%
    11:00 +28°C° 0 mm 4 m/s 743 mmHg 44%
    12:00 +29°C° 0 mm 4 m/s 743 mmHg 41%
    13:00 +30°C° 0 mm 4 m/s 743 mmHg 37%
    14:00 +30°C° 0 mm 3 m/s 742 mmHg 38%
    15:00 +30°C° 0 mm 3 m/s 742 mmHg 39%
    16:00 +30°C° 0 mm 3 m/s 742 mmHg 39%
    17:00 +28°C° 0 mm 3 m/s 742 mmHg 45%
    18:00 +26°C° 0 mm 3 m/s 742 mmHg 50%
    19:00 +24°C° 0 mm 2 m/s 742 mmHg 56%
    20:00 +23°C° 0 mm 2 m/s 743 mmHg 58%
    21:00 +23°C° 0 mm 2 m/s 743 mmHg 59%
    22:00 +21°C° 0 mm 2 m/s 744 mmHg 61%
    23:00 +21°C° 0.1 mm 3 m/s 744 mmHg 64%

    Poimâine, 22 Septembrie, Sâmbătă

    Timp Temperatura Precipitaţii Vânt Presiune Umiditate
    00:00 +21°C° 0.1 mm 3 m/s 744 mmHg 67%
    01:00 +20°C° 0.1 mm 4 m/s 744 mmHg 69%
    02:00 +20°C° 0.3 mm 4 m/s 745 mmHg 73%
    03:00 +19°C° 0.3 mm 4 m/s 745 mmHg 76%
    04:00 +19°C° 0.3 mm 3 m/s 745 mmHg 79%
    05:00 +18°C° 0.3 mm 4 m/s 745 mmHg 79%
    06:00 +16°C° 0.3 mm 5 m/s 746 mmHg 78%
    07:00 +16°C° 0.3 mm 6 m/s 747 mmHg 78%
    08:00 +15°C° 0.1 mm 5 m/s 747 mmHg 75%
    09:00 +14°C° 0.1 mm 5 m/s 748 mmHg 71%
    10:00 +14°C° 0.1 mm 4 m/s 749 mmHg 68%
    11:00 +13°C° 0.4 mm 4 m/s 749 mmHg 69%
    12:00 +13°C° 0.4 mm 3 m/s 749 mmHg 71%
    13:00 +13°C° 0.4 mm 3 m/s 749 mmHg 72%
    14:00 +14°C° 0.3 mm 2 m/s 749 mmHg 73%
    15:00 +14°C° 0.3 mm 2 m/s 749 mmHg 74%
    16:00 +14°C° 0.3 mm 2 m/s 748 mmHg 74%
    17:00 +14°C° 0 mm 2 m/s 749 mmHg 74%
    18:00 +14°C° 0 mm 2 m/s 749 mmHg 75%
    19:00 +14°C° 0 mm 2 m/s 749 mmHg 75%
    20:00 +13°C° 0 mm 2 m/s 749 mmHg 76%
    21:00 +13°C° 0 mm 2 m/s 749 mmHg 77%
    22:00 +12°C° 0 mm 3 m/s 749 mmHg 78%
    23:00 +12°C° 0 mm 2 m/s 749 mmHg 78%

    23 Septembrie, Duminică

    Timp Temperatura Precipitaţii Vânt Presiune Umiditate
    00:00 +12°C° 0 mm 2 m/s 749 mmHg 79%
    01:00 +12°C° 0 mm 2 m/s 749 mmHg 79%
    02:00 +12°C° 0 mm 2 m/s 749 mmHg 78%
    03:00 +13°C° 0 mm 1 m/s 749 mmHg 77%
    04:00 +13°C° 0 mm 1 m/s 748 mmHg 76%
    05:00 +13°C° 0.1 mm 1 m/s 748 mmHg 76%
    06:00 +14°C° 0.1 mm 1 m/s 748 mmHg 77%
    07:00 +14°C° 0.1 mm 1 m/s 748 mmHg 77%
    08:00 +14°C° 0.4 mm 1 m/s 748 mmHg 79%
    09:00 +14°C° 0.4 mm 1 m/s 748 mmHg 80%
    10:00 +14°C° 0.4 mm 2 m/s 748 mmHg 81%
    11:00 +14°C° 0.2 mm 2 m/s 747 mmHg 80%
    12:00 +15°C° 0.2 mm 2 m/s 746 mmHg 79%
    13:00 +14°C° 0.2 mm 3 m/s 745 mmHg 78%
    14:00 +17°C° 0 mm 3 m/s 744 mmHg 72%
    15:00 +18°C° 0 mm 3 m/s 743 mmHg 67%
    16:00 +19°C° 0 mm 3 m/s 742 mmHg 62%
    17:00 +19°C° 0 mm 4 m/s 742 mmHg 65%
    18:00 +18°C° 0 mm 4 m/s 741 mmHg 67%
    19:00 +17°C° 0 mm 4 m/s 740 mmHg 69%
    20:00 +17°C° 0 mm 4 m/s 739 mmHg 69%
    21:00 +18°C° 0 mm 4 m/s 738 mmHg 68%
    22:00 +17°C° 0 mm 5 m/s 738 mmHg 68%
    23:00 +17°C° 0 mm 5 m/s 736 mmHg 70%

    24 Septembrie, Luni

    Timp Temperatura Precipitaţii Vânt Presiune Umiditate
    00:00 +17°C° 0 mm 5 m/s 734 mmHg 72%
    01:00 +16°C° 0 mm 5 m/s 733 mmHg 74%
    02:00 +16°C° 0.6 mm 7 m/s 733 mmHg 71%
    03:00 +16°C° 0.6 mm 9 m/s 734 mmHg 68%
    04:00 +14°C° 0.6 mm 12 m/s 734 mmHg 65%
    05:00 +14°C° 0.9 mm 12 m/s 735 mmHg 67%
    06:00 +13°C° 0.9 mm 12 m/s 735 mmHg 68%
    07:00 +12°C° 0.9 mm 13 m/s 736 mmHg 69%
    08:00 +13°C° 0.4 mm 14 m/s 737 mmHg 64%
    09:00 +13°C° 0.4 mm 14 m/s 738 mmHg 58%
    10:00 +14°C° 0.4 mm 15 m/s 739 mmHg 53%
    11:00 +14°C° 0 mm 15 m/s 740 mmHg 51%
    12:00 +14°C° 0 mm 14 m/s 741 mmHg 48%
    13:00 +14°C° 0 mm 14 m/s 742 mmHg 46%
    14:00 +14°C° 0 mm 13 m/s 743 mmHg 47%
    15:00 +14°C° 0 mm 12 m/s 744 mmHg 47%
    16:00 +14°C° 0 mm 11 m/s 744 mmHg 47%
    17:00 +13°C° 0 mm 9 m/s 745 mmHg 50%
    18:00 +12°C° 0 mm 8 m/s 746 mmHg 53%
    19:00 +11°C° 0 mm 7 m/s 746 mmHg 56%
    20:00 +10°C° 0 mm 7 m/s 747 mmHg 56%
    21:00 +10°C° 0 mm 7 m/s 748 mmHg 56%
    22:00 +9°C° 0 mm 7 m/s 748 mmHg 57%
    23:00 +9°C° 0 mm 7 m/s 749 mmHg 59%

    25 Septembrie, Marţi

    Timp Temperatura Precipitaţii Vânt Presiune Umiditate
    00:00 +9°C° 0 mm 7 m/s 749 mmHg 60%
    01:00 +8°C° 0 mm 7 m/s 750 mmHg 62%
    02:00 +8°C° 0 mm 7 m/s 750 mmHg 63%
    03:00 +8°C° 0 mm 7 m/s 750 mmHg 64%
    04:00 +6°C° 0 mm 7 m/s 751 mmHg 65%
    05:00 +6°C° 0 mm 7 m/s 751 mmHg 65%
    06:00 +6°C° 0 mm 7 m/s 751 mmHg 65%
    07:00 +6°C° 0 mm 8 m/s 751 mmHg 65%
    08:00 +7°C° 0.2 mm 8 m/s 751 mmHg 64%
    09:00 +8°C° 0.2 mm 9 m/s 751 mmHg 63%
    10:00 +8°C° 0.2 mm 9 m/s 751 mmHg 61%
    11:00 +10°C° 0.3 mm 9 m/s 752 mmHg 60%
    12:00 +11°C° 0.3 mm 9 m/s 752 mmHg 58%
    13:00 +11°C° 0.3 mm 9 m/s 752 mmHg 56%
    14:00 +11°C° 0.2 mm 9 m/s 752 mmHg 56%
    15:00 +11°C° 0.2 mm 8 m/s 752 mmHg 55%
    16:00 +11°C° 0.2 mm 7 m/s 752 mmHg 54%
    17:00 +10°C° 0.1 mm 6 m/s 753 mmHg 58%
    18:00 +9°C° 0.1 mm 5 m/s 753 mmHg 62%
    19:00 +8°C° 0.1 mm 4 m/s 754 mmHg 66%
    20:00 +8°C° 0 mm 4 m/s 754 mmHg 69%
    21:00 +7°C° 0 mm 4 m/s 754 mmHg 71%
    22:00 +7°C° 0 mm 4 m/s 754 mmHg 73%
    23:00 +7°C° 0.1 mm 4 m/s 755 mmHg 75%
    Arată mai mult